Location: Rottenacker
(48.2350°N, 9.6886°E)
Time: 11:54:53
(UTC+02:00)

ISS - Visible Passes

Search period start: 20 May 2018 00:00
Search period end: 30 May 2018 00:00
Orbit: 402 x 407 km, 51.6° (Epoch: 20 May)

Date Brightness Start Highest point End Pass type
(mag) Time Alt. Az. Time Alt. Az. Time Alt. Az.
20 May -1.6 00:06:25 17° ENE 00:06:25 17° ENE 00:07:17 10° ENE visible
20 May -2.7 01:38:58 23° WNW 01:40:39 45° N 01:43:49 10° ENE visible
20 May -3.2 03:14:13 10° WNW 03:17:27 58° NNE 03:20:41 10° E visible
20 May -3.3 04:50:48 10° WNW 04:53:52 38° SSW 04:56:56 10° SE visible
20 May -3.7 23:08:42 10° SW 23:11:52 48° SSE 23:15:02 10° ENE visible
21 May -3.0 00:45:10 10° W 00:48:22 52° NNW 00:51:35 10° ENE visible
21 May -2.8 02:22:00 10° WNW 02:25:11 48° N 02:28:22 10° E visible
21 May -3.9 03:58:32 10° WNW 04:01:46 61° SSW 04:04:59 10° SE visible
21 May -3.0 22:16:53 10° SSW 22:19:47 30° SE 22:22:41 10° E visible
21 May -3.5 23:52:51 10° W 23:56:07 67° NNW 23:59:22 10° ENE visible
22 May -2.7 01:29:43 10° WNW 01:32:53 44° N 01:36:03 10° ENE visible
22 May -3.9 03:06:18 10° WNW 03:09:35 88° NNE 03:12:51 10° ESE visible
22 May -2.4 04:43:18 10° W 04:45:45 20° SW 04:48:10 10° S visible
22 May -3.9 23:00:36 10° WSW 23:03:53 88° SSE 23:07:09 10° ENE visible
23 May -2.7 00:37:24 10° WNW 00:40:34 44° N 00:43:43 10° ENE visible
23 May -3.5 02:14:05 10° WNW 02:17:21 64° NNE 02:20:36 10° E visible
23 May -3.1 03:50:44 10° W 03:53:42 32° SW 03:56:38 10° SSE visible
23 May -3.8 22:08:28 10° SW 22:11:41 57° SSE 22:14:54 10° ENE visible
23 May -2.9 23:45:03 10° W 23:48:14 49° N 23:51:26 10° ENE visible
24 May -3.0 01:21:51 10° WNW 01:25:03 51° N 01:27:49 13° E visible
24 May -2.6 02:58:23 10° WNW 03:00:12 29° W 03:00:12 29° W visible
24 May -3.3 22:52:41 10° W 22:55:56 60° NNW 22:59:10 10° ENE visible
25 May -2.7 00:29:33 10° WNW 00:32:43 45° N 00:35:35 12° ENE visible
25 May -2.8 02:06:06 10° WNW 02:08:09 35° WNW 02:08:09 35° WNW visible
25 May -3.7 22:00:22 10° WSW 22:03:38 82° NNW 22:06:55 10° ENE visible
25 May -2.6 23:37:12 10° WNW 23:40:21 43° N 23:43:31 10° ENE visible
26 May -3.6 01:13:51 10° WNW 01:17:03 71° N 01:17:03 71° N visible
26 May -2.7 22:44:48 10° W 22:48:00 46° N 22:51:11 10° ENE visible
27 May -3.2 00:21:34 10° WNW 00:24:48 54° NNE 00:26:11 29° ENE visible
27 May -1.4 01:58:07 10° WNW 01:58:47 15° W 01:58:47 15° W visible
27 May -3.0 21:52:24 10° W 21:55:38 55° NNW 21:58:51 10° ENE visible
27 May -2.8 23:29:15 10° WNW 23:32:26 46° N 23:35:24 11° E visible
28 May -2.9 01:05:47 10° WNW 01:08:01 39° W 01:08:01 39° W visible
28 May -2.6 22:36:53 10° WNW 22:40:02 43° N 22:43:12 10° ENE visible
29 May -3.8 00:13:29 10° WNW 00:16:46 80° NNE 00:17:18 59° E visible
29 May -3.3 23:21:10 10° WNW 23:24:25 59° NNE 23:26:37 19° E visible
